Red Oak, IA

1:07 AM CDT on May 28, 2017 (GMT -0500)
Red Oak Municipal

Weather History for KRDK - April, 2013

Change the Weather History Date:

Saturday, April 6, 2013

  Actual Average Record
Temperature  
Mean Temperature 58 °F -  
Max Temperature 71 °F 64 °F 91 °F (1972)
Min Temperature 46 °F 34 °F 8 °F (1982)
Degree Days  
Heating Degree Days 6    
Growing Degree Days 8 (Base 50)    
Moisture  
Dew Point 38 °F    
Average Humidity 46    
Maximum Humidity 66    
Minimum Humidity 21    
Precipitation  
Precipitation 0.00 in - - ()
Sea Level Pressure  
Sea Level Pressure 29.68 in    
Wind  
Wind Speed 15 mph (SW)    
Max Wind Speed 23 mph    
Max Gust Speed 31 mph    
Visibility 10 miles    
Events      
Averages and records for this station are not official NWS values.
T = Trace of Precipitation, MM = Missing Value Source: NWS Daily Summary

Daily Weather History Graph

Daily Weather History Graph

Search for Another Location

Airport or City:

Trip Planner

Search our weather history database for the weather conditions in past years. The results will help you decide how hot, cold, wet, or windy it might be!

Date:

Astronomy

Apr. 06, 2013 Rise Set
Actual Time 6:55 AM CDT 7:51 PM CDT
Civil Twilight 6:27 AM CDT 8:19 PM CDT
Nautical Twilight 5:54 AM CDT 8:53 PM CDT
Astronomical Twilight 5:20 AM CDT 9:27 PM CDT
Moon 4:41 AM CDT (4/6) 4:19 PM CDT (4/6)
Length of Visible Light 13h 51m
Length of Day
12h 55m
Waning Crescent, 15% of the Moon is Illuminated
Apr 6
Waning Crescent
Apr 10
New
Apr 18
First Quarter
Apr 25
Full
May 2
Last Quarter

Hourly Weather History & Observations

Time (CDT) Temp. Dew Point Humidity Pressure Visibility Wind Dir Wind Speed Gust Speed Precip Events Conditions
12:15 AM 60.8 °F 37.4 °F 42% 29.75 in 10.0 mi South 19.6 mph 26.5 mph N/A   Scattered Clouds
12:35 AM 60.8 °F 37.4 °F 42% 29.75 in 10.0 mi South 17.3 mph 31.1 mph N/A   Scattered Clouds
12:55 AM 60.8 °F 37.4 °F 42% 29.74 in 10.0 mi South 19.6 mph 25.3 mph N/A   Scattered Clouds
1:15 AM 60.8 °F 37.4 °F 42% 29.74 in 10.0 mi South 18.4 mph 26.5 mph N/A   Clear
1:35 AM 60.8 °F 37.4 °F 42% 29.74 in 10.0 mi South 18.4 mph 25.3 mph N/A   Clear
1:55 AM 60.8 °F 37.4 °F 42% 29.73 in 10.0 mi South 18.4 mph 28.8 mph N/A   Scattered Clouds
2:15 AM 60.8 °F 37.4 °F 42% 29.72 in 10.0 mi South 23.0 mph 28.8 mph N/A   Scattered Clouds
2:35 AM 60.8 °F 37.4 °F 42% 29.73 in 10.0 mi South 18.4 mph 28.8 mph N/A   Scattered Clouds
2:55 AM 59.0 °F 37.4 °F 45% 29.72 in 10.0 mi South 16.1 mph 24.2 mph N/A   Scattered Clouds
3:15 AM 59.0 °F 37.4 °F 45% 29.71 in 10.0 mi South 15.0 mph 19.6 mph N/A   Scattered Clouds
3:35 AM 57.2 °F 39.2 °F 51% 29.71 in 10.0 mi South 16.1 mph - N/A   Scattered Clouds
3:55 AM 57.2 °F 39.2 °F 51% 29.71 in 10.0 mi South 11.5 mph 20.7 mph N/A   Scattered Clouds
4:15 AM 57.2 °F 39.2 °F 51% 29.70 in 10.0 mi South 10.4 mph - N/A   Clear
4:35 AM 55.4 °F 39.2 °F 54% 29.70 in 10.0 mi South 12.7 mph 18.4 mph N/A   Clear
4:55 AM 55.4 °F 39.2 °F 54% 29.69 in 10.0 mi South 11.5 mph - N/A   Scattered Clouds
5:15 AM 55.4 °F 39.2 °F 54% 29.68 in 10.0 mi South 10.4 mph - N/A   Clear
5:35 AM 55.4 °F 39.2 °F 54% 29.67 in 10.0 mi South 11.5 mph - N/A   Scattered Clouds
5:55 AM 53.6 °F 39.2 °F 58% 29.67 in 10.0 mi South 9.2 mph - N/A   Scattered Clouds
6:15 AM 53.6 °F 39.2 °F 58% 29.66 in 10.0 mi South 12.7 mph - N/A   Scattered Clouds
6:35 AM 53.6 °F 39.2 °F 58% 29.66 in 10.0 mi South 10.4 mph - N/A   Scattered Clouds
6:55 AM 53.6 °F 39.2 °F 58% 29.65 in 10.0 mi South 9.2 mph - N/A   Scattered Clouds
7:15 AM 53.6 °F 39.2 °F 58% 29.65 in 10.0 mi South 11.5 mph - N/A   Scattered Clouds
7:35 AM 53.6 °F 41.0 °F 62% 29.64 in 10.0 mi South 12.7 mph 17.3 mph N/A   Clear
7:55 AM 55.4 °F 41.0 °F 58% 29.64 in 10.0 mi South 13.8 mph - N/A   Clear
8:15 AM 55.4 °F 42.8 °F 63% 29.64 in 10.0 mi South 12.7 mph 18.4 mph N/A   Clear
8:35 AM 57.2 °F 42.8 °F 59% 29.63 in 10.0 mi South 16.1 mph - N/A   Clear
8:55 AM 57.2 °F 42.8 °F 59% 29.63 in 10.0 mi South 16.1 mph 20.7 mph N/A   Clear
9:15 AM 57.2 °F 42.8 °F 59% 29.63 in 10.0 mi South 17.3 mph 23.0 mph N/A   Clear
9:35 AM 59.0 °F 44.6 °F 59% 29.61 in 10.0 mi South 16.1 mph 21.9 mph N/A   Clear
9:55 AM 60.8 °F 44.6 °F 55% 29.61 in 10.0 mi SSW 17.3 mph - N/A   Clear
10:15 AM 60.8 °F 44.6 °F 55% 29.60 in 10.0 mi SSW 21.9 mph - N/A   Clear
10:35 AM 64.4 °F 44.6 °F 49% 29.60 in 10.0 mi SSW 21.9 mph 26.5 mph N/A   Clear
10:55 AM 64.4 °F 44.6 °F 49% 29.60 in 10.0 mi SSW 18.4 mph 26.5 mph N/A   Clear
11:15 AM 64.4 °F 44.6 °F 49% 29.60 in 10.0 mi SW 17.3 mph 27.6 mph N/A   Clear
11:35 AM 64.4 °F 44.6 °F 49% 29.60 in 10.0 mi WSW 17.3 mph 26.5 mph N/A   Clear
11:55 AM 66.2 °F 44.6 °F 46% 29.60 in 10.0 mi SW 15.0 mph 24.2 mph N/A   Clear
12:15 PM 66.2 °F 44.6 °F 46% 29.60 in 10.0 mi WSW 16.1 mph 25.3 mph N/A   Scattered Clouds
12:35 PM 66.2 °F 44.6 °F 46% 29.61 in 10.0 mi West 17.3 mph 24.2 mph N/A   Clear
12:55 PM 64.4 °F 42.8 °F 45% 29.61 in 10.0 mi West 13.8 mph 20.7 mph N/A   Clear
1:15 PM 66.2 °F 41.0 °F 40% 29.62 in 10.0 mi West 18.4 mph - N/A   Scattered Clouds
1:35 PM 62.6 °F 37.4 °F 39% 29.63 in 10.0 mi WNW 21.9 mph 27.6 mph N/A   Scattered Clouds
1:55 PM 64.4 °F 35.6 °F 34% 29.64 in 10.0 mi WNW 19.6 mph 27.6 mph N/A   Scattered Clouds
2:15 PM 64.4 °F 35.6 °F 34% 29.64 in 10.0 mi WNW 18.4 mph 26.5 mph N/A   Scattered Clouds
2:35 PM 64.4 °F 35.6 °F 34% 29.64 in 10.0 mi WNW 16.1 mph 28.8 mph N/A   Clear
2:55 PM 66.2 °F 35.6 °F 32% 29.64 in 10.0 mi WNW 20.7 mph 25.3 mph N/A   Clear
3:15 PM 66.2 °F 37.4 °F 35% 29.64 in 10.0 mi WNW 19.6 mph 25.3 mph N/A   Clear
3:35 PM 68.0 °F 35.6 °F 30% 29.64 in 10.0 mi NW 19.6 mph 26.5 mph N/A   Clear
3:55 PM 69.8 °F 35.6 °F 28% 29.64 in 10.0 mi NW 16.1 mph 24.2 mph N/A   Clear
4:15 PM 69.8 °F 35.6 °F 28% 29.65 in 10.0 mi WNW 15.0 mph 23.0 mph N/A   Scattered Clouds
4:35 PM 71.6 °F 35.6 °F 27% 29.65 in 10.0 mi WNW 16.1 mph 24.2 mph N/A   Scattered Clouds
4:55 PM 69.8 °F 35.6 °F 28% 29.66 in 10.0 mi WNW 13.8 mph 23.0 mph N/A   Mostly Cloudy
5:15 PM 71.6 °F 35.6 °F 27% 29.67 in 10.0 mi WNW 17.3 mph 21.9 mph N/A   Mostly Cloudy
5:35 PM 71.6 °F 32.0 °F 23% 29.67 in 10.0 mi WNW 12.7 mph 23.0 mph N/A   Mostly Cloudy
5:55 PM 71.6 °F 30.2 °F 22% 29.68 in 10.0 mi NW 17.3 mph - N/A   Scattered Clouds
6:15 PM 69.8 °F 28.4 °F 21% 29.70 in 10.0 mi NW 18.4 mph 24.2 mph N/A   Clear
6:35 PM 69.8 °F 28.4 °F 21% 29.71 in 10.0 mi WNW 15.0 mph 25.3 mph N/A   Clear
6:55 PM 69.8 °F 28.4 °F 21% 29.72 in 10.0 mi WNW 13.8 mph 17.3 mph N/A   Clear
7:15 PM 66.2 °F 30.2 °F 26% 29.72 in 10.0 mi NW 9.2 mph - N/A   Clear
7:35 PM 62.6 °F 32.0 °F 32% 29.72 in 10.0 mi WNW 4.6 mph - N/A   Clear
7:55 PM 60.8 °F 33.8 °F 36% 29.73 in 10.0 mi WNW 4.6 mph - N/A   Clear
8:15 PM 59.0 °F 33.8 °F 39% 29.74 in 10.0 mi WNW 3.5 mph - N/A   Scattered Clouds
8:35 PM 55.4 °F 33.8 °F 44% 29.75 in 10.0 mi WNW 3.5 mph - N/A   Scattered Clouds
8:55 PM 53.6 °F 35.6 °F 51% 29.75 in 10.0 mi Calm Calm - N/A   Mostly Cloudy
9:15 PM 53.6 °F 35.6 °F 51% 29.75 in 10.0 mi Calm Calm - N/A   Scattered Clouds
9:35 PM 51.8 °F 35.6 °F 54% 29.75 in 5.0 mi Calm Calm - N/A   Haze
9:55 PM 51.8 °F 35.6 °F 54% 29.76 in 5.0 mi Calm Calm - N/A   Haze
10:15 PM 50.0 °F 35.6 °F 58% 29.77 in 7.0 mi Calm Calm - N/A   Scattered Clouds
10:35 PM 51.8 °F 35.6 °F 54% 29.78 in 10.0 mi Calm Calm - N/A   Scattered Clouds
10:55 PM 48.2 °F 35.6 °F 62% 29.78 in 10.0 mi Calm Calm - N/A   Scattered Clouds
11:15 PM 46.4 °F 35.6 °F 66% 29.78 in 10.0 mi Calm Calm - N/A   Scattered Clouds
11:35 PM 46.4 °F 35.6 °F 66% 29.78 in 10.0 mi Calm Calm - N/A   Scattered Clouds
11:55 PM 46.4 °F 35.6 °F 66% 29.79 in 10.0 mi Calm Calm - N/A   Clear